Location: Borotín
(49.5055°N, 14.6142°E)
Time: 10:59:12
(UTC+00:00)

Cosmos 614 Rocket - Pass Details

Date: 27 May 2022
Orbit: 732 x 764 km, 74.1° (Epoch: 26 June)

Event Time Altitude Azimuth Distance (km) Brightness Sun altitude
Rises 01:11:48 0° 334° (NNW) 3,217 7.7 -13.3°
Reaches altitude 10° 01:14:10 10° 332° (NNW) 2,292 6.9 -13.1°
Maximum altitude 01:19:19 68° 251° (WSW) 821 4.0 -12.6°
Drops below altitude 10° 01:24:29 10° 169° (S) 2,291 6.1 -12.2°
Enters shadow 01:25:36 - 168° (SSE) 2,723 6.5 -12.1°
